• In Hungary
  • List of Countries
  • For 7 days
  • Water Temperature
  • Satellite Maps
  • Weather Map
  • News
  • Weather Widgets
  • user-avatar
    Login

    Hourly Weather Davydovo

    Today, 26 May, Saturday

    Time Temperature Precipitation Wind Pressure Humidity
    00:00 +9°C° 0 mm 1 mps 761 mmHg 69%
    01:00 +8°C° 0 mm 1 mps 761 mmHg 70%
    02:00 +7°C° 0 mm 0 mps 762 mmHg 71%
    03:00 +9°C° 0 mm 1 mps 762 mmHg 70%
    04:00 +9°C° 0 mm 1 mps 762 mmHg 69%
    05:00 +10°C° 0 mm 1 mps 762 mmHg 68%
    06:00 +12°C° 0 mm 1 mps 762 mmHg 62%
    07:00 +14°C° 0 mm 1 mps 763 mmHg 56%
    08:00 +16°C° 0 mm 2 mps 763 mmHg 50%
    09:00 +17°C° 0 mm 2 mps 763 mmHg 48%
    10:00 +18°C° 0 mm 2 mps 763 mmHg 45%
    11:00 +20°C° 0 mm 2 mps 762 mmHg 43%
    12:00 +20°C° 0 mm 2 mps 762 mmHg 43%
    13:00 +21°C° 0 mm 3 mps 762 mmHg 43%
    14:00 +21°C° 0 mm 3 mps 761 mmHg 43%
    15:00 +21°C° 0 mm 3 mps 761 mmHg 46%
    16:00 +21°C° 0 mm 3 mps 760 mmHg 48%
    17:00 +21°C° 0 mm 3 mps 760 mmHg 51%
    18:00 +19°C° 0 mm 2 mps 760 mmHg 57%
    19:00 +17°C° 0 mm 2 mps 760 mmHg 63%
    20:00 +15°C° 0 mm 2 mps 759 mmHg 69%
    21:00 +13°C° 0 mm 3 mps 759 mmHg 69%
    22:00 +12°C° 0 mm 3 mps 759 mmHg 69%
    23:00 +12°C° 0 mm 3 mps 759 mmHg 70%

    Tomorrow, 27 May, Sunday

    Time Temperature Precipitation Wind Pressure Humidity
    00:00 +11°C° 0 mm 3 mps 759 mmHg 70%
    01:00 +11°C° 0 mm 3 mps 759 mmHg 71%
    02:00 +11°C° 0 mm 3 mps 759 mmHg 72%
    03:00 +11°C° 0 mm 4 mps 758 mmHg 73%
    04:00 +11°C° 0 mm 4 mps 758 mmHg 74%
    05:00 +12°C° 0 mm 4 mps 758 mmHg 74%
    06:00 +14°C° 0 mm 4 mps 757 mmHg 71%
    07:00 +16°C° 0 mm 5 mps 757 mmHg 68%
    08:00 +19°C° 0 mm 5 mps 757 mmHg 65%
    09:00 +20°C° 0 mm 5 mps 756 mmHg 61%
    10:00 +21°C° 0 mm 6 mps 756 mmHg 56%
    11:00 +23°C° 0 mm 6 mps 755 mmHg 52%
    12:00 +23°C° 0.1 mm 6 mps 755 mmHg 54%
    13:00 +22°C° 0.1 mm 5 mps 755 mmHg 55%
    14:00 +22°C° 0.1 mm 5 mps 754 mmHg 57%
    15:00 +22°C° 0.3 mm 4 mps 754 mmHg 59%
    16:00 +21°C° 0.3 mm 4 mps 754 mmHg 62%
    17:00 +21°C° 0.3 mm 3 mps 754 mmHg 65%
    18:00 +19°C° 0 mm 4 mps 754 mmHg 63%
    19:00 +17°C° 0 mm 4 mps 755 mmHg 61%
    20:00 +14°C° 0 mm 4 mps 755 mmHg 59%
    21:00 +12°C° 0 mm 4 mps 756 mmHg 56%
    22:00 +11°C° 0 mm 3 mps 757 mmHg 52%
    23:00 +9°C° 0 mm 3 mps 757 mmHg 49%

    Day after tomorrow, 28 May, Monday

    Time Temperature Precipitation Wind Pressure Humidity
    00:00 +8°C° 0 mm 3 mps 758 mmHg 52%
    01:00 +8°C° 0 mm 2 mps 758 mmHg 55%
    02:00 +7°C° 0 mm 2 mps 759 mmHg 59%
    03:00 +7°C° 0 mm 2 mps 759 mmHg 59%
    04:00 +7°C° 0 mm 2 mps 760 mmHg 59%
    05:00 +8°C° 0 mm 2 mps 760 mmHg 59%
    06:00 +9°C° 0 mm 2 mps 760 mmHg 54%
    07:00 +12°C° 0 mm 2 mps 760 mmHg 48%
    08:00 +14°C° 0 mm 2 mps 761 mmHg 43%
    09:00 +14°C° 0 mm 3 mps 760 mmHg 41%
    10:00 +16°C° 0 mm 3 mps 760 mmHg 39%
    11:00 +16°C° 0 mm 3 mps 760 mmHg 37%
    12:00 +17°C° 0 mm 3 mps 760 mmHg 37%
    13:00 +18°C° 0 mm 3 mps 760 mmHg 36%
    14:00 +18°C° 0 mm 3 mps 760 mmHg 36%
    15:00 +18°C° 0 mm 3 mps 759 mmHg 39%
    16:00 +18°C° 0 mm 2 mps 759 mmHg 41%
    17:00 +18°C° 0 mm 2 mps 759 mmHg 44%
    18:00 +17°C° 0 mm 2 mps 759 mmHg 49%
    19:00 +15°C° 0 mm 2 mps 759 mmHg 55%
    20:00 +13°C° 0 mm 2 mps 759 mmHg 61%
    21:00 +12°C° 0 mm 2 mps 759 mmHg 61%
    22:00 +10°C° 0 mm 2 mps 759 mmHg 62%
    23:00 +10°C° 0 mm 2 mps 759 mmHg 62%

    29 May, Tuesday

    Time Temperature Precipitation Wind Pressure Humidity
    00:00 +9°C° 0 mm 2 mps 759 mmHg 64%
    01:00 +9°C° 0 mm 2 mps 758 mmHg 65%
    02:00 +9°C° 0 mm 2 mps 758 mmHg 66%
    03:00 +9°C° 0 mm 2 mps 758 mmHg 67%
    04:00 +10°C° 0 mm 2 mps 758 mmHg 67%
    05:00 +10°C° 0 mm 3 mps 758 mmHg 68%
    06:00 +12°C° 0 mm 3 mps 758 mmHg 62%
    07:00 +14°C° 0 mm 3 mps 758 mmHg 57%
    08:00 +17°C° 0 mm 3 mps 758 mmHg 52%
    09:00 +19°C° 0 mm 3 mps 757 mmHg 48%
    10:00 +20°C° 0 mm 3 mps 757 mmHg 45%
    11:00 +22°C° 0 mm 3 mps 757 mmHg 41%
    12:00 +22°C° 0 mm 3 mps 756 mmHg 41%
    13:00 +24°C° 0 mm 3 mps 756 mmHg 41%
    14:00 +24°C° 0 mm 3 mps 756 mmHg 41%
    15:00 +24°C° 0 mm 3 mps 755 mmHg 44%
    16:00 +24°C° 0 mm 3 mps 755 mmHg 47%
    17:00 +24°C° 0 mm 3 mps 754 mmHg 50%
    18:00 +21°C° 0 mm 3 mps 754 mmHg 56%
    19:00 +19°C° 0 mm 3 mps 754 mmHg 61%
    20:00 +17°C° 0 mm 3 mps 754 mmHg 66%
    21:00 +16°C° 0 mm 3 mps 753 mmHg 67%
    22:00 +14°C° 0 mm 3 mps 753 mmHg 68%
    23:00 +13°C° 0 mm 3 mps 753 mmHg 69%

    30 May, Wednesday

    Time Temperature Precipitation Wind Pressure Humidity
    00:00 +13°C° 0 mm 3 mps 753 mmHg 71%
    01:00 +12°C° 0 mm 3 mps 753 mmHg 72%
    02:00 +12°C° 0 mm 3 mps 752 mmHg 74%
    03:00 +12°C° 0 mm 3 mps 752 mmHg 73%
    04:00 +13°C° 0 mm 3 mps 752 mmHg 72%
    05:00 +14°C° 0 mm 3 mps 752 mmHg 71%
    06:00 +15°C° 0 mm 4 mps 751 mmHg 65%
    07:00 +18°C° 0 mm 4 mps 751 mmHg 60%
    08:00 +20°C° 0 mm 4 mps 751 mmHg 55%
    09:00 +22°C° 0 mm 4 mps 751 mmHg 51%
    10:00 +23°C° 0 mm 5 mps 751 mmHg 47%
    11:00 +26°C° 0 mm 5 mps 751 mmHg 43%
    12:00 +26°C° 0 mm 5 mps 750 mmHg 42%
    13:00 +27°C° 0 mm 4 mps 750 mmHg 41%
    14:00 +27°C° 0 mm 4 mps 750 mmHg 40%
    15:00 +26°C° 0 mm 4 mps 750 mmHg 46%
    16:00 +25°C° 0 mm 3 mps 750 mmHg 51%
    17:00 +24°C° 0 mm 2 mps 750 mmHg 56%
    18:00 +23°C° 0 mm 2 mps 750 mmHg 60%
    19:00 +20°C° 0 mm 2 mps 750 mmHg 64%
    20:00 +19°C° 0 mm 2 mps 750 mmHg 68%
    21:00 +18°C° 0 mm 2 mps 749 mmHg 69%
    22:00 +17°C° 0 mm 2 mps 749 mmHg 71%
    23:00 +16°C° 0 mm 2 mps 749 mmHg 73%

    31 May, Thursday

    Time Temperature Precipitation Wind Pressure Humidity
    00:00 +16°C° 0 mm 2 mps 749 mmHg 74%
    01:00 +15°C° 0 mm 2 mps 749 mmHg 75%
    02:00 +14°C° 0 mm 3 mps 748 mmHg 76%
    03:00 +14°C° 0 mm 3 mps 748 mmHg 74%
    04:00 +15°C° 0 mm 4 mps 748 mmHg 71%
    05:00 +15°C° 0 mm 4 mps 747 mmHg 69%
    06:00 +18°C° 0 mm 4 mps 747 mmHg 67%
    07:00 +19°C° 0 mm 5 mps 747 mmHg 65%
    08:00 +20°C° 0 mm 5 mps 747 mmHg 63%
    09:00 +21°C° 0 mm 6 mps 746 mmHg 57%
    10:00 +22°C° 0 mm 6 mps 746 mmHg 52%
    11:00 +23°C° 0 mm 6 mps 746 mmHg 46%
    12:00 +23°C° 0 mm 6 mps 746 mmHg 45%
    13:00 +23°C° 0 mm 6 mps 746 mmHg 43%
    14:00 +23°C° 0 mm 5 mps 746 mmHg 42%
    15:00 +22°C° 0 mm 5 mps 746 mmHg 42%
    16:00 +21°C° 0 mm 5 mps 747 mmHg 42%
    17:00 +19°C° 0 mm 5 mps 747 mmHg 42%
    18:00 +17°C° 0 mm 4 mps 748 mmHg 46%
    19:00 +14°C° 0 mm 4 mps 748 mmHg 51%
    20:00 +12°C° 0 mm 3 mps 749 mmHg 55%
    21:00 +11°C° 0 mm 3 mps 750 mmHg 57%
    22:00 +10°C° 0 mm 3 mps 750 mmHg 59%
    23:00 +8°C° 0 mm 3 mps 751 mmHg 60%
    Show more